Location: B?ogocice
(50.2413°N, 20.2361°E)
Time: 22:38:18
(UTC+00:00)

Cosmos 1937 Rocket - Pass Details

Date: 15 June 2024
Orbit: 745 x 777 km, 74.0° (Epoch: 18 July)

Event Time Altitude Azimuth Distance (km) Brightness Sun altitude
Exits shadow 00:57:50 13° 220° (SW) 2,090 5.1 -10.3°
Maximum altitude 01:02:25 58° 298° (WNW) 894 3.8 -9.9°
Drops below altitude 10° 01:07:36 10° 18° (NNE) 2,312 7.4 -9.5°
Sets 01:10:01 0° 23° (NNE) 3,236 8.7 -9.3°
